Location: Villingen
(48.0639°N, 8.4609°E)
Time: 13:34:04
(UTC+01:00)

ISS - Pass Details

Date: 17 November 2017
Orbit: 402 x 407 km, 51.6° (Epoch: 19 November)

Event Time Altitude Azimuth Distance (km) Brightness Sun altitude
Exits shadow 04:48:26 14° 129° (SE) 1,259 -0.8 -27.7°
Drops below altitude 10° 04:48:55 10° 128° (SE) 1,451 -0.4 -27.7°
Sets 04:51:00 0° 124° (SE) 2,307 0.8 -27.3°
